Lexington Weather

Lexington, Massachusetts, USA

34°F
4/16/2021 11:04am 
  • Lexington Conditions: Light snow, Mist, Overcast
  • Temperature: 34.0°F / 1.1°CWarmer 0.2°F than last hour.
  • Dew Point: 32.7°FIncreased 0.2°Fsince last hour.
  • Relative Humidity: 95
  • Wind: Wind from NNW NNW 2 mph, 10-min avg: 2 mph, gust: 4 mph
  • Barometer: 29.46 inFalling 0.03  inHg/hr Falling Slowly
  • Visibility: 1 mile
  • Snow Today: 1.7 in
  •   

Regional Weather Roundup
for Boston / Norton, MA

        
000
ASUS41 KBOX 100304
RWRBOX

REGIONAL WEATHER ROUNDUP
NATIONAL WEATHER SERVICE BOSTON/NORTON MA
1100 PM EDT FRI APR 09 2021

NOTE:  "FAIR" INDICATES FEW OR NO CLOUDS BELOW 12,000 FEET WITH NO 
SIGNIFICANT WEATHER AND/OR OBSTRUCTIONS TO VISIBILITY.

MAZALL-100400-
EASTERN MASSACHUSETTS
  
CITY           SKY/WX    TMP DP  RH WIND       PRES   REMARKS
BOSTON         PTCLDY    50  42  74 S7        30.11F                  
BEVERLY        CLEAR     50  42  74 S3        30.09F                  
LAWRENCE       CLEAR     53  43  68 S5        30.10F                  
BEDFORD        CLEAR     51  42  71 S7        30.08F                  
BLUE HILL        N/A     45  42  89 S12       30.09F                  
NORWOOD        CLEAR     48  42  80 SE6       30.11F                  
MARSHFIELD     CLEAR     48  45  87 SW6       30.11F                  
PLYMOUTH       CLEAR     43  41  93 SW7       30.12F                  
TAUNTON        CLEAR     43  40  89 S3        30.13F                  
NEW BEDFORD    CLOUDY    43  42  97 S3        30.13F FOG              
$$

MAZALL-100400-
CAPE COD AND THE ISLANDS
  
CITY           SKY/WX    TMP DP  RH WIND       PRES   REMARKS
FALMOUTH       FOG       41  41 100 W9        30.14F VSB 1            
HYANNIS        CLOUDY    45  43  93 SW7       30.12F                  
CHATHAM        CLOUDY    43  41  93 SW5       30.14F FOG              
PROVINCETOWN   CLEAR     44  43  96 MISG        N/A                   
NANTUCKET      FOG       40  40 100 W7        30.15F VSB 1/2          
MARTHAS VNYRD  FOG       42  41  96 SW5       30.15F VSB 1/4          
$$
 
MAZALL-100400-
CENTRAL AND WESTERN MASSACHUSETTS
  
CITY           SKY/WX    TMP DP  RH WIND       PRES   REMARKS
WORCESTER      MOCLDY    52  42  69 SW10      30.09F                  
FITCHBURG      PTCLDY    53  44  71 CALM      30.08F                  
ORANGE         MOCLDY    55  43  63 S6        30.09F                  
SPRINGFIELD    CLOUDY    55  44  66 S6        30.08F                  
WESTFIELD      CLOUDY    55  45  68 S8        30.09S                  
NORTH ADAMS    CLOUDY    61  40  45 SW5       30.06S                  
PITTSFIELD     CLOUDY    56  41  57 SW6       30.07S                  
$$
 
RIZALL-100400-
RHODE ISLAND
  
CITY           SKY/WX    TMP DP  RH WIND       PRES   REMARKS
PROVIDENCE     PTCLDY    45  43  93 S6        30.13F                  
NEWPORT        FOG       42  42 100 SW6       30.13F VSB 1/4          
BLOCK ISLAND   LGT RAIN  42  42 100 SW13      30.14F VSB 1/2          
SMITHFIELD     PTCLDY    46  44  93 S3        30.11F                  
WESTERLY       CLOUDY    42  42 100 SW5       30.14F FOG              
$$
 
CTZALL-100400-
CONNECTICUT
  
CITY           SKY/WX    TMP DP  RH WIND       PRES   REMARKS
BRADLEY INTL   CLOUDY    55  44  66 S10       30.10F                  
HARTFORD       CLOUDY    53  44  71 S6        30.12S                  
BRIDGEPORT     CLOUDY    49  45  86 SW6       30.13F                  
DANBURY        CLOUDY    53  42  66 S3        30.12F                  
GROTON         MOCLDY    45  43  93 SW6       30.13F                  
NEW HAVEN      CLOUDY    49  46  90 S3        30.13F                  
CHESTER        CLOUDY    46  45  93 CALM      30.13S                  
MERIDEN        CLOUDY    50  43  77 S7        30.12F                  
WILLIMANTIC    CLOUDY    51  43  74 S5        30.12F                  
OXFORD         CLOUDY    49  47  93 S3        30.12F                  
$$

MEZ002-015-021-024-NHZ003-005-008-011-012-014-VTZ005-008-100400-
NORTHERN NEW ENGLAND
  
CITY           SKY/WX    TMP DP  RH WIND       PRES   REMARKS
PORTLAND ME    PTCLDY    47  43  86 S3        30.09F                  
BANGOR ME      CLEAR     50  43  77 S5        30.08S                  
CONCORD NH     CLEAR     53  42  66 CALM      30.07F                  
MANCHESTER NH  PTCLDY    55  43  63 VRB3      30.06F                  
NASHUA NH      PTCLDY    50  46  86 CALM      30.08F                  
PORTSMOUTH NH  PTCLDY    46  42  87 CALM      30.09F                  
JAFFREY NH     PTCLDY    49  42  77 SW3       30.08F                  
KEENE NH       PTCLDY    52  42  69 CALM      30.08S                  
BURLINGTON VT  PTCLDY    65  39  38 S9        29.99S                  
MT. WASHINGTON NOT AVBL                                               
$$

NYZ052-076-100400-
EASTERN NEW YORK
  
CITY           SKY/WX    TMP DP  RH WIND       PRES   REMARKS
ALBANY         MOCLDY    57  44  62 S10       30.06S                  
NEW YORK CITY  CLOUDY    50  44  80 S7        30.11F                  
$$
 
ANZALL-100400-
MARINE OBSERVATIONS
  
STATION/POSITION TIME  TEMP    WIND        PRES    VSBY  WAVE
                       AIR SEA DIR/SP/G                  HT/PER
                 (UTC) (F)     (DEG/KT/KT) (MB)    (MI)  (FT/S)
BOSTON BUOY      0240   47 44  180/ 10/ 12 1019.8F
BUZZARDS BAY     0200          230/ 11/ 13 1022.1S
NANTUCKET SOUND  0240      46                N/A
MASS BAY-STELLWA 0204   47     180/ 12/ 14 1018.4F  1 7/8  4/11
ISLE OF SHOALS   0200   49     180/ 14/ 15 1018.6F
S OF BLOCK IS    0226      46                N/A           3/ 9
$$

......................KEY.........................
  SKY/WX - SKY CONDITION/PRESENT WEATHER
  TMP    - TEMPERATURE IN FAHRENHEIT
  DWPT   - DEWPOINT IN FAHRENHEIT
  RH     - RELATIVE HUMIDITY IN PERCENT
  WIND   - DIRECTION AND SPEED IN MPH
  PRES   - MEAN SEA LEVEL PRESSURE IN INCHES OF HG
  WCI    - WIND CHILL INDEX
  VSB    - VISIBILITY IN MILES
  HX     - HEAT INDEX
  TC     - TEMPERATURE IN CELSIUS
  VRB    - VARIABLE WIND DIRECTION
  N/A    - NOT AVAILABLE
  
      

Other recent Regional Weather Roundups

Fri Apr 16, 10:05am

Fri Apr 16, 9:04am

Fri Apr 16, 8:04am

Fri Apr 16, 7:04am

Fri Apr 16, 6:04am

Fri Apr 16, 5:04am

Fri Apr 16, 4:04am

Fri Apr 16, 3:04am

Fri Apr 16, 2:04am

Fri Apr 16, 1:04am

Fri Apr 16, 12:04am

Thu Apr 15, 11:05pm

Thu Apr 15, 10:04pm

Thu Apr 15, 9:04pm

Thu Apr 15, 8:04pm

Thu Apr 15, 7:05pm

Thu Apr 15, 6:04pm

Thu Apr 15, 5:05pm

Thu Apr 15, 4:04pm

Thu Apr 15, 3:05pm

Thu Apr 15, 2:04pm

Thu Apr 15, 1:05pm

Thu Apr 15, 12:04pm

Thu Apr 15, 11:04am

Thu Apr 15, 10:05am

Thu Apr 15, 9:04am

Thu Apr 15, 8:04am

Thu Apr 15, 7:04am

Thu Apr 15, 6:04am

Thu Apr 15, 5:04am

Thu Apr 15, 4:04am

Thu Apr 15, 3:04am

Thu Apr 15, 2:04am

Thu Apr 15, 1:04am

Thu Apr 15, 12:04am

Wed Apr 14, 11:04pm

Wed Apr 14, 10:04pm

Wed Apr 14, 9:04pm

Wed Apr 14, 8:04pm

Wed Apr 14, 7:04pm

Wed Apr 14, 6:04pm

Wed Apr 14, 5:05pm

Wed Apr 14, 4:04pm

Wed Apr 14, 3:05pm

Wed Apr 14, 2:04pm

Wed Apr 14, 1:05pm

Wed Apr 14, 12:04pm

Wed Apr 14, 11:04am

Wed Apr 14, 10:04am

Wed Apr 14, 9:04am

Wed Apr 14, 8:04am

Wed Apr 14, 7:04am

Wed Apr 14, 6:04am

Wed Apr 14, 5:04am

Wed Apr 14, 4:04am

Wed Apr 14, 3:04am

Wed Apr 14, 2:04am

Wed Apr 14, 1:04am

Wed Apr 14, 12:04am

Tue Apr 13, 11:04pm

Tue Apr 13, 10:05pm

Tue Apr 13, 9:05pm

Tue Apr 13, 8:05pm

Tue Apr 13, 7:04pm

Tue Apr 13, 6:04pm

Tue Apr 13, 5:05pm

Tue Apr 13, 4:04pm

Tue Apr 13, 3:04pm

Tue Apr 13, 2:05pm

Tue Apr 13, 1:04pm

Tue Apr 13, 12:05pm

Tue Apr 13, 11:05am

Tue Apr 13, 10:04am

Tue Apr 13, 9:04am

Tue Apr 13, 8:04am

Tue Apr 13, 7:04am

Tue Apr 13, 6:04am

Tue Apr 13, 5:04am

Tue Apr 13, 4:04am

Tue Apr 13, 3:04am

Tue Apr 13, 2:04am

Tue Apr 13, 1:04am

Tue Apr 13, 12:05am

Mon Apr 12, 11:04pm

Mon Apr 12, 10:04pm

Mon Apr 12, 9:04pm

Mon Apr 12, 8:04pm

Mon Apr 12, 7:05pm

Mon Apr 12, 6:04pm

Mon Apr 12, 5:04pm

Mon Apr 12, 4:04pm

Mon Apr 12, 3:05pm

Mon Apr 12, 2:04pm

Mon Apr 12, 1:05pm

Mon Apr 12, 12:04pm

Mon Apr 12, 11:04am

Mon Apr 12, 10:04am

Mon Apr 12, 9:04am

Mon Apr 12, 8:04am

Mon Apr 12, 7:04am

Mon Apr 12, 6:04am

Mon Apr 12, 5:04am

Mon Apr 12, 4:04am

Mon Apr 12, 3:04am

Mon Apr 12, 2:04am

Mon Apr 12, 1:05am

Mon Apr 12, 12:04am

Sun Apr 11, 11:04pm

Sun Apr 11, 10:04pm

Sun Apr 11, 9:04pm

Sun Apr 11, 8:04pm

Sun Apr 11, 7:04pm

Sun Apr 11, 6:05pm

Sun Apr 11, 5:05pm

Sun Apr 11, 4:04pm

Sun Apr 11, 3:05pm

Sun Apr 11, 2:05pm

Sun Apr 11, 1:05pm

Sun Apr 11, 12:04pm

Sun Apr 11, 11:05am

Sun Apr 11, 10:05am

Sun Apr 11, 9:04am

Sun Apr 11, 8:04am

Sun Apr 11, 7:04am

Sun Apr 11, 6:04am

Sun Apr 11, 5:04am

Sun Apr 11, 4:04am

Sun Apr 11, 3:04am

Sun Apr 11, 2:04am

Sun Apr 11, 1:05am

Sun Apr 11, 12:04am

Sat Apr 10, 11:05pm

Sat Apr 10, 10:04pm

Sat Apr 10, 9:04pm

Sat Apr 10, 8:04pm

Sat Apr 10, 7:05pm

Sat Apr 10, 6:04pm

Sat Apr 10, 5:04pm

Sat Apr 10, 4:04pm

Sat Apr 10, 3:04pm

Sat Apr 10, 2:05pm

Sat Apr 10, 1:04pm

Sat Apr 10, 12:04pm

Sat Apr 10, 11:04am

Sat Apr 10, 10:04am

Sat Apr 10, 9:04am

Sat Apr 10, 8:04am

Sat Apr 10, 7:04am

Sat Apr 10, 6:04am

Sat Apr 10, 5:04am

Sat Apr 10, 4:04am

Sat Apr 10, 3:04am

Sat Apr 10, 2:04am

Sat Apr 10, 1:05am

Sat Apr 10, 12:04am

Fri Apr 9, 10:05pm

Fri Apr 9, 9:04pm

Fri Apr 9, 8:05pm

Fri Apr 9, 7:05pm

Fri Apr 9, 6:04pm

Fri Apr 9, 5:04pm

Fri Apr 9, 4:05pm

Fri Apr 9, 3:05pm

Fri Apr 9, 2:04pm

Fri Apr 9, 1:04pm

Fri Apr 9, 12:04pm

Fri Apr 9, 11:05am

Meta data:

ID: 6569aa85-35f2-4ecf-85f2-4deb7e773b56
Link: https://api.weather.gov/products/6569aa85-35f2-4ecf-85f2-4deb7e773b56